Location: Devore Heights
(34.2372°N, 117.4156°W)
Time: 04:25:43
(UTC+00:00)

A-11 Canister half - Pass Details

Date: 20 September 2024
Orbit: 1515 x 1684 km, 47.2° (Epoch: 08 October)

Event Time Altitude Azimuth Distance (km) Brightness Sun altitude
Rises 02:47:27 0° 270° (W) 4,745 13.4 -12.7°
Reaches altitude 10° 02:50:50 10° 277° (W) 3,739 12.5 -13.4°
Maximum altitude 02:59:35 41° 346° (NNW) 2,087 9.9 -15.2°
Drops below altitude 10° 03:08:12 10° 55° (NE) 3,676 10.6 -16.9°
Enters shadow 03:09:13 - 57° (ENE) 3,971 10.8 -17.1°
